Location: Malvern Link
(52.1333°N, 2.3000°W)
Time: 08:12:52
(UTC+00:00)

Cosmos 1634 Rocket - Pass Details

Date: 30 November 2021
Orbit: 959 x 993 km, 82.9° (Epoch: 24 January)

Event Time Altitude Azimuth Distance (km) Brightness Sun altitude
Rises 05:48:13 0° 347° (NNW) 3,716 6.8 -18.4°
Reaches altitude 10° 05:50:47 10° 344° (NNW) 2,760 6.1 -18.0°
Maximum altitude 05:56:58 58° 267° (W) 1,139 4.0 -17.1°
Drops below altitude 10° 06:03:03 10° 190° (S) 2,719 6.4 -16.2°
Sets 06:05:34 0° 187° (S) 3,658 7.1 -15.8°
